| time (UTC) | temp F | wind direction | speed MPH | gust MPH | rain 1hr in | rain 24hr in | rain mn in | humidity % | barometer mb |
| 20260831191543 | 89 | 252 | 0.0 | 0.0 | 0.00 | 0.00 | 0.00 | 68 | 1020.0 |
| 20260831191039 | 87 | 293 | 0.0 | 1.0 | 0.00 | 0.00 | 0.00 | 71 | 1020.1 |
| 20260831190535 | 87 | 242 | 1.0 | 1.0 | 0.00 | 0.00 | 0.00 | 71 | 1020.2 |
| 20260831190033 | 88 | 355 | 0.0 | 0.0 | 0.00 | 0.00 | 0.00 | 68 | 1020.2 |
| 20260831185529 | 87 | 253 | 0.0 | 0.0 | 0.00 | 0.00 | 0.00 | 69 | 1020.4 |
| 20260831185024 | 87 | 252 | 0.0 | 0.0 | 0.00 | 0.00 | 0.00 | 69 | 1020.4 |
| 20260831184518 | 88 | 298 | 0.0 | 0.0 | 0.00 | 0.00 | 0.00 | 72 | 1020.5 |
| 20260831184014 | 87 | 252 | 0.0 | 2.0 | 0.00 | 0.00 | 0.00 | 72 | 1020.6 |
| 20260831183513 | 87 | 215 | 0.0 | 0.0 | 0.00 | 0.00 | 0.00 | 71 | 1020.5 |
| 20260831183013 | 87 | 149 | 0.0 | 0.0 | 0.00 | 0.00 | 0.00 | 72 | 1020.6 |
| 20260831182507 | 87 | 303 | 0.0 | 0.0 | 0.00 | 0.00 | 0.00 | 73 | 1020.5 |
| 20260831182003 | 86 | 246 | 0.0 | 0.0 | 0.00 | 0.00 | 0.00 | 73 | 1020.7 |
| 20260831181458 | 87 | 252 | 0.0 | 0.0 | 0.00 | 0.00 | 0.00 | 72 | 1020.6 |
| 20260831180953 | 86 | 250 | 0.0 | 0.0 | 0.00 | 0.00 | 0.00 | 73 | 1020.8 |
| 20260831180453 | 85 | 252 | 0.0 | 0.0 | 0.00 | 0.00 | 0.00 | 72 | 1020.8 |
| 20260831175952 | 86 | 288 | 0.0 | 1.0 | 0.00 | 0.00 | 0.00 | 73 | 1020.7 |
| 20260831175449 | 85 | 244 | 0.0 | 0.0 | 0.00 | 0.00 | 0.00 | 72 | 1020.9 |
| 20260831174944 | 85 | 236 | 0.0 | 0.0 | 0.00 | 0.00 | 0.00 | 74 | 1021.1 |
| 20260831174440 | 84 | 251 | 0.0 | 1.0 | 0.00 | 0.00 | 0.00 | 76 | 1021.0 |
| 20260831173938 | 85 | 304 | 0.0 | 0.0 | 0.00 | 0.00 | 0.00 | 74 | 1021.2 |
| 20260831173437 | 84 | 253 | 0.0 | 0.0 | 0.00 | 0.00 | 0.00 | 75 | 1021.1 |
| 20260831172933 | 84 | 251 | 0.0 | 0.0 | 0.00 | 0.00 | 0.00 | 77 | 1021.0 |
| 20260831172429 | 84 | 172 | 0.0 | 0.0 | 0.00 | 0.00 | 0.00 | 78 | 1021.2 |
| 20260831171929 | 84 | 245 | 0.0 | 0.0 | 0.00 | 0.00 | 0.00 | 75 | 1021.2 |
| 20260831171425 | 83 | 255 | 0.0 | 0.0 | 0.00 | 0.00 | 0.00 | 76 | 1021.3 |
| 20260831170922 | 83 | 277 | 0.0 | 0.0 | 0.00 | 0.00 | 0.00 | 81 | 1021.3 |
| 20260831170418 | 83 | 254 | 0.0 | 0.0 | 0.00 | 0.00 | 0.00 | 78 | 1021.3 |
| 20260831165914 | 83 | 293 | 0.0 | 0.0 | 0.00 | 0.00 | 0.00 | 79 | 1021.3 |
| 20260831165410 | 82 | 210 | 0.0 | 0.0 | 0.00 | 0.00 | 0.00 | 79 | 1021.4 |
| 20260831164906 | 82 | 244 | 0.0 | 0.0 | 0.00 | 0.00 | 0.00 | 79 | 1021.4 |
| 20260831164402 | 82 | 300 | 0.0 | 0.0 | 0.00 | 0.00 | 0.00 | 80 | 1021.2 |
| 20260831163857 | 81 | 248 | 0.0 | 0.0 | 0.00 | 0.00 | 0.00 | 81 | 1021.1 |
| 20260831163353 | 81 | 302 | 0.0 | 0.0 | 0.00 | 0.00 | 0.00 | 82 | 1021.3 |
| 20260831162851 | 80 | 277 | 0.0 | 0.0 | 0.00 | 0.00 | 0.00 | 82 | 1021.4 |
| 20260831162347 | 80 | 304 | 0.0 | 0.0 | 0.00 | 0.00 | 0.00 | 81 | 1021.5 |
| 20260831161845 | 80 | 198 | 0.0 | 0.0 | 0.00 | 0.00 | 0.00 | 82 | 1021.6 |
| 20260831161342 | 80 | 243 | 0.0 | 0.0 | 0.00 | 0.00 | 0.00 | 82 | 1021.5 |
| 20260831160837 | 79 | 268 | 0.0 | 0.0 | 0.00 | 0.00 | 0.00 | 83 | 1021.4 |
| 20260831160337 | 79 | 200 | 0.0 | 0.0 | 0.00 | 0.00 | 0.00 | 85 | 1021.5 |
| 20260831155833 | 79 | 51 | 0.0 | 0.0 | 0.00 | 0.00 | 0.00 | 86 | 1021.6 |
| 20260831155332 | 78 | 243 | 0.0 | 0.0 | 0.00 | 0.00 | 0.00 | 87 | 1021.5 |
| 20260831154828 | 77 | 52 | 0.0 | 0.0 | 0.00 | 0.00 | 0.00 | 89 | 1021.4 |
| 20260831154325 | 77 | 51 | 0.0 | 0.0 | 0.00 | 0.00 | 0.00 | 91 | 1021.6 |
| 20260831153823 | 76 | 209 | 0.0 | 0.0 | 0.00 | 0.00 | 0.00 | 92 | 1021.7 |
| 20260831153319 | 75 | 282 | 0.0 | 0.0 | 0.00 | 0.00 | 0.00 | 92 | 1021.6 |
| 20260831152815 | 75 | 177 | 0.0 | 0.0 | 0.00 | 0.00 | 0.00 | 93 | 1021.7 |
| 20260831152310 | 75 | 305 | 0.0 | 0.0 | 0.00 | 0.00 | 0.00 | 93 | 1021.6 |
| 20260831151805 | 74 | 27 | 0.0 | 0.0 | 0.00 | 0.00 | 0.00 | 94 | 1021.5 |
| 20260831151304 | 74 | 27 | 0.0 | 0.0 | 0.00 | 0.00 | 0.00 | 94 | 1021.5 |
| 20260831150800 | 74 | 26 | 0.0 | 0.0 | 0.00 | 0.00 | 0.00 | 94 | 1021.7 |
| 20260831150255 | 74 | 255 | 0.0 | 0.0 | 0.00 | 0.00 | 0.00 | 94 | 1021.6 |
| 20260831145754 | 74 | 238 | 0.0 | 0.0 | 0.00 | 0.00 | 0.00 | 94 | 1021.9 |
| 20260831145250 | 74 | 193 | 0.0 | 0.0 | 0.00 | 0.00 | 0.00 | 94 | 1021.6 |
| 20260831144746 | 73 | 11 | 0.0 | 0.0 | 0.00 | 0.00 | 0.00 | 95 | 1021.7 |
| 20260831144242 | 73 | 44 | 0.0 | 0.0 | 0.00 | 0.00 | 0.00 | 95 | 1021.7 |
| 20260831143742 | 73 | 21 | 0.0 | 0.0 | 0.00 | 0.00 | 0.00 | 95 | 1021.7 |
| 20260831143237 | 73 | 186 | 0.0 | 0.0 | 0.00 | 0.00 | 0.00 | 95 | 1021.7 |
| 20260831142733 | 73 | 188 | 0.0 | 0.0 | 0.00 | 0.00 | 0.00 | 95 | 1021.7 |
| 20260831142228 | 73 | 166 | 0.0 | 0.0 | 0.00 | 0.00 | 0.00 | 96 | 1021.7 |
| 20260831141727 | 73 | 165 | 0.0 | 0.0 | 0.00 | 0.00 | 0.00 | 96 | 1021.7 |
| 20260831141222 | 73 | 189 | 0.0 | 0.0 | 0.00 | 0.00 | 0.00 | 96 | 1021.7 |
| 20260831140722 | 73 | 189 | 0.0 | 0.0 | 0.00 | 0.00 | 0.00 | 96 | 1021.5 |
| 20260831140217 | 72 | 189 | 0.0 | 0.0 | 0.00 | 0.00 | 0.00 | 95 | 1021.8 |
| 20260831135714 | 72 | 189 | 0.0 | 0.0 | 0.00 | 0.00 | 0.00 | 96 | 1021.6 |
| 20260831135210 | 72 | 189 | 0.0 | 0.0 | 0.00 | 0.00 | 0.00 | 96 | 1021.6 |
| 20260831134706 | 72 | 189 | 0.0 | 0.0 | 0.00 | 0.00 | 0.00 | 96 | 1021.5 |
| 20260831134202 | 72 | 189 | 0.0 | 0.0 | 0.00 | 0.00 | 0.00 | 96 | 1021.4 |
| 20260831133700 | 72 | 189 | 0.0 | 0.0 | 0.00 | 0.00 | 0.00 | 97 | 1021.5 |
| 20260831133150 | 71 | 189 | 0.0 | 0.0 | 0.00 | 0.00 | 0.00 | 97 | 1021.6 |
| 20260831132646 | 71 | 189 | 0.0 | 0.0 | 0.00 | 0.00 | 0.00 | 97 | 1021.6 |
| 20260831132144 | 71 | 189 | 0.0 | 0.0 | 0.00 | 0.00 | 0.00 | 98 | 1021.6 |
| 20260831131639 | 71 | 189 | 0.0 | 0.0 | 0.00 | 0.00 | 0.00 | 98 | 1021.6 |
| 20260831131135 | 70 | 189 | 0.0 | 0.0 | 0.00 | 0.00 | 0.00 | 99 | 1021.6 |
| 20260831130631 | 70 | 189 | 0.0 | 0.0 | 0.00 | 0.00 | 0.00 | 99 | 1021.4 |
| 20260831130126 | 70 | 189 | 0.0 | 0.0 | 0.00 | 0.00 | 0.00 | 99 | 1021.4 |
| 20260831125624 | 69 | 189 | 0.0 | 0.0 | 0.00 | 0.00 | 0.00 | 99 | 1021.5 |
| 20260831125120 | 69 | 189 | 0.0 | 0.0 | 0.00 | 0.00 | 0.00 | 99 | 1021.4 |
| 20260831124616 | 69 | 189 | 0.0 | 0.0 | 0.00 | 0.00 | 0.00 | 99 | 1021.4 |
| 20260831124112 | 69 | 189 | 0.0 | 0.0 | 0.00 | 0.00 | 0.00 | 99 | 1021.4 |
| 20260831123611 | 68 | 189 | 0.0 | 0.0 | 0.00 | 0.00 | 0.00 | 99 | 1021.4 |
| 20260831123106 | 68 | 189 | 0.0 | 0.0 | 0.00 | 0.00 | 0.00 | 99 | 1021.3 |
| 20260831122605 | 68 | 189 | 0.0 | 0.0 | 0.00 | 0.00 | 0.00 | 99 | 1021.2 |
| 20260831122101 | 68 | 189 | 0.0 | 0.0 | 0.00 | 0.00 | 0.00 | 99 | 1021.2 |
| 20260831121600 | 68 | 189 | 0.0 | 0.0 | 0.00 | 0.00 | 0.00 | 99 | 1021.1 |
| 20260831121057 | 67 | 189 | 0.0 | 0.0 | 0.00 | 0.00 | 0.00 | 99 | 1021.2 |
| 20260831120556 | 67 | 189 | 0.0 | 0.0 | 0.00 | 0.00 | 0.00 | 99 | 1021.1 |
| 20260831120052 | 67 | 189 | 0.0 | 0.0 | 0.00 | 0.00 | 0.00 | 99 | 1021.0 |
| 20260831115548 | 67 | 189 | 0.0 | 0.0 | 0.00 | 0.00 | 0.00 | 99 | 1020.9 |
| 20260831115043 | 67 | 189 | 0.0 | 0.0 | 0.00 | 0.00 | 0.00 | 99 | 1021.2 |
| 20260831114542 | 67 | 189 | 0.0 | 0.0 | 0.00 | 0.00 | 0.00 | 99 | 1021.0 |
| 20260831114037 | 67 | 189 | 0.0 | 0.0 | 0.00 | 0.00 | 0.00 | 99 | 1021.1 |
| 20260831113536 | 67 | 189 | 0.0 | 0.0 | 0.00 | 0.00 | 0.00 | 99 | 1021.2 |
| 20260831113032 | 66 | 189 | 0.0 | 0.0 | 0.00 | 0.00 | 0.00 | 99 | 1020.9 |
| 20260831112531 | 66 | 189 | 0.0 | 0.0 | 0.00 | 0.00 | 0.00 | 99 | 1021.0 |
| 20260831112026 | 66 | 189 | 0.0 | 0.0 | 0.00 | 0.00 | 0.00 | 99 | 1020.8 |
| 20260831111522 | 66 | 189 | 0.0 | 0.0 | 0.00 | 0.00 | 0.00 | 99 | 1020.8 |
| 20260831111018 | 66 | 189 | 0.0 | 0.0 | 0.00 | 0.00 | 0.00 | 99 | 1020.7 |
| 20260831110513 | 66 | 189 | 0.0 | 0.0 | 0.00 | 0.00 | 0.00 | 99 | 1020.7 |
| 20260831110008 | 66 | 189 | 0.0 | 0.0 | 0.00 | 0.00 | 0.00 | 99 | 1020.5 |
| 20260831105508 | 66 | 189 | 0.0 | 0.0 | 0.00 | 0.00 | 0.00 | 99 | 1020.6 |
| 20260831105003 | 66 | 189 | 0.0 | 0.0 | 0.00 | 0.00 | 0.00 | 99 | 1020.5 |
| 20260831104459 | 66 | 189 | 0.0 | 0.0 | 0.00 | 0.00 | 0.00 | 99 | 1020.6 |
| 20260831103954 | 66 | 189 | 0.0 | 0.0 | 0.00 | 0.00 | 0.00 | 99 | 1020.5 |
| 20260831103454 | 66 | 189 | 0.0 | 0.0 | 0.00 | 0.00 | 0.00 | 99 | 1020.4 |
| 20260831102950 | 66 | 189 | 0.0 | 0.0 | 0.00 | 0.00 | 0.00 | 99 | 1020.4 |
| 20260831102445 | 66 | 189 | 0.0 | 0.0 | 0.00 | 0.00 | 0.00 | 99 | 1020.5 |
| 20260831101940 | 66 | 189 | 0.0 | 0.0 | 0.00 | 0.00 | 0.00 | 99 | 1020.4 |
| 20260831101435 | 66 | 189 | 0.0 | 0.0 | 0.00 | 0.00 | 0.00 | 99 | 1020.7 |
| 20260831100931 | 66 | 189 | 0.0 | 0.0 | 0.00 | 0.00 | 0.00 | 99 | 1020.4 |
| 20260831100427 | 66 | 189 | 0.0 | 0.0 | 0.00 | 0.00 | 0.00 | 99 | 1020.4 |
| 20260831095921 | 66 | 189 | 0.0 | 0.0 | 0.00 | 0.00 | 0.00 | 99 | 1020.5 |
| 20260831095420 | 67 | 189 | 0.0 | 0.0 | 0.00 | 0.00 | 0.00 | 99 | 1020.3 |
| 20260831094916 | 67 | 189 | 0.0 | 0.0 | 0.00 | 0.00 | 0.00 | 99 | 1020.6 |
| 20260831094412 | 66 | 189 | 0.0 | 0.0 | 0.00 | 0.00 | 0.00 | 99 | 1020.5 |
| 20260831093908 | 67 | 189 | 0.0 | 0.0 | 0.00 | 0.00 | 0.00 | 99 | 1020.3 |
| 20260831093403 | 67 | 189 | 0.0 | 0.0 | 0.00 | 0.00 | 0.00 | 99 | 1020.4 |
| 20260831092900 | 67 | 189 | 0.0 | 0.0 | 0.00 | 0.00 | 0.00 | 99 | 1020.3 |
| 20260831092355 | 67 | 189 | 0.0 | 0.0 | 0.00 | 0.00 | 0.00 | 99 | 1020.4 |
| 20260831091850 | 67 | 189 | 0.0 | 0.0 | 0.00 | 0.00 | 0.00 | 99 | 1020.5 |
| 20260831091345 | 67 | 189 | 0.0 | 0.0 | 0.00 | 0.00 | 0.00 | 99 | 1020.3 |
| 20260831090840 | 67 | 189 | 0.0 | 0.0 | 0.00 | 0.00 | 0.00 | 99 | 1020.3 |
| 20260831090336 | 67 | 189 | 0.0 | 0.0 | 0.00 | 0.00 | 0.00 | 99 | 1020.5 |
| 20260831085833 | 67 | 189 | 0.0 | 0.0 | 0.00 | 0.00 | 0.00 | 99 | 1020.4 |
| 20260831085332 | 67 | 189 | 0.0 | 0.0 | 0.00 | 0.00 | 0.00 | 99 | 1020.2 |
| 20260831084827 | 67 | 189 | 0.0 | 0.0 | 0.00 | 0.00 | 0.00 | 99 | 1020.2 |
| 20260831084323 | 67 | 189 | 0.0 | 0.0 | 0.00 | 0.00 | 0.00 | 99 | 1020.2 |
| 20260831083819 | 67 | 189 | 0.0 | 0.0 | 0.00 | 0.00 | 0.00 | 99 | 1020.2 |
| 20260831083315 | 67 | 189 | 0.0 | 0.0 | 0.00 | 0.00 | 0.00 | 99 | 1020.1 |
| 20260831082813 | 67 | 189 | 0.0 | 0.0 | 0.00 | 0.00 | 0.00 | 99 | 1020.1 |
| 20260831082308 | 67 | 189 | 0.0 | 0.0 | 0.00 | 0.00 | 0.00 | 99 | 1020.0 |
| 20260831081803 | 68 | 189 | 0.0 | 0.0 | 0.00 | 0.00 | 0.00 | 99 | 1020.0 |
| 20260831081259 | 68 | 189 | 0.0 | 0.0 | 0.00 | 0.00 | 0.00 | 99 | 1020.1 |
| 20260831080755 | 68 | 189 | 0.0 | 0.0 | 0.00 | 0.00 | 0.00 | 99 | 1020.0 |
| 20260831080255 | 68 | 189 | 0.0 | 0.0 | 0.00 | 0.00 | 0.00 | 99 | 1020.3 |
| 20260831075751 | 68 | 189 | 0.0 | 0.0 | 0.00 | 0.00 | 0.00 | 99 | 1020.2 |
| 20260831075246 | 68 | 189 | 0.0 | 0.0 | 0.00 | 0.00 | 0.00 | 99 | 1020.4 |
| 20260831074746 | 68 | 189 | 0.0 | 0.0 | 0.00 | 0.00 | 0.00 | 99 | 1020.3 |
| 20260831074245 | 68 | 189 | 0.0 | 0.0 | 0.00 | 0.00 | 0.00 | 99 | 1020.3 |
| 20260831073742 | 68 | 189 | 0.0 | 0.0 | 0.00 | 0.00 | 0.00 | 99 | 1020.3 |
| 20260831073240 | 68 | 189 | 0.0 | 0.0 | 0.00 | 0.00 | 0.00 | 99 | 1020.2 |
| 20260831072736 | 68 | 189 | 0.0 | 0.0 | 0.00 | 0.00 | 0.00 | 99 | 1020.0 |
| 20260831072232 | 68 | 189 | 0.0 | 0.0 | 0.00 | 0.00 | 0.00 | 99 | 1020.1 |
| 20260831071732 | 68 | 189 | 0.0 | 0.0 | 0.00 | 0.00 | 0.00 | 99 | 1020.0 |
| 20260831071227 | 68 | 189 | 0.0 | 0.0 | 0.00 | 0.00 | 0.00 | 99 | 1019.9 |
| 20260831070726 | 68 | 189 | 0.0 | 0.0 | 0.00 | 0.00 | 0.00 | 99 | 1020.1 |
| 20260831070221 | 68 | 189 | 0.0 | 0.0 | 0.00 | 0.00 | 0.00 | 99 | 1020.1 |
| 20260831065720 | 68 | 189 | 0.0 | 0.0 | 0.00 | 0.00 | 0.00 | 99 | 1020.2 |
| 20260831065218 | 69 | 189 | 0.0 | 0.0 | 0.00 | 0.00 | 0.00 | 99 | 1020.2 |
| 20260831064714 | 69 | 189 | 0.0 | 0.0 | 0.00 | 0.00 | 0.00 | 99 | 1019.9 |
| 20260831064209 | 69 | 189 | 0.0 | 0.0 | 0.00 | 0.00 | 0.00 | 99 | 1020.0 |
| 20260831063705 | 69 | 189 | 0.0 | 0.0 | 0.00 | 0.00 | 0.00 | 99 | 1020.1 |
| 20260831063200 | 69 | 189 | 0.0 | 0.0 | 0.00 | 0.00 | 0.00 | 99 | 1020.1 |
| 20260831062659 | 69 | 189 | 0.0 | 0.0 | 0.00 | 0.00 | 0.00 | 99 | 1020.3 |
| 20260831062159 | 69 | 189 | 0.0 | 0.0 | 0.00 | 0.00 | 0.00 | 99 | 1020.1 |
| 20260831061657 | 69 | 189 | 0.0 | 0.0 | 0.00 | 0.00 | 0.00 | 99 | 1020.0 |
| 20260831061153 | 69 | 189 | 0.0 | 0.0 | 0.00 | 0.00 | 0.00 | 99 | 1020.2 |
| 20260831060649 | 69 | 189 | 0.0 | 0.0 | 0.00 | 0.00 | 0.00 | 99 | 1020.2 |
| 20260831060144 | 70 | 189 | 0.0 | 0.0 | 0.00 | 0.00 | 0.00 | 99 | 1020.2 |
| 20260831055643 | 70 | 189 | 0.0 | 0.0 | 0.00 | 0.00 | 0.00 | 99 | 1020.2 |
| 20260831055138 | 70 | 189 | 0.0 | 0.0 | 0.00 | 0.00 | 0.00 | 99 | 1020.2 |
| 20260831054638 | 70 | 189 | 0.0 | 0.0 | 0.00 | 0.00 | 0.00 | 99 | 1020.4 |
| 20260831054137 | 70 | 189 | 0.0 | 0.0 | 0.00 | 0.00 | 0.00 | 99 | 1020.5 |
| 20260831053632 | 70 | 189 | 0.0 | 0.0 | 0.00 | 0.00 | 0.00 | 99 | 1020.5 |
| 20260831053131 | 70 | 189 | 0.0 | 0.0 | 0.00 | 0.00 | 0.00 | 99 | 1020.5 |
| 20260831052630 | 70 | 189 | 0.0 | 0.0 | 0.00 | 0.00 | 0.00 | 99 | 1020.6 |
| 20260831052129 | 70 | 189 | 0.0 | 0.0 | 0.00 | 0.00 | 0.00 | 99 | 1020.5 |
| 20260831051628 | 70 | 189 | 0.0 | 0.0 | 0.00 | 0.00 | 0.00 | 99 | 1020.5 |
| 20260831051127 | 71 | 189 | 0.0 | 0.0 | 0.00 | 0.00 | 0.00 | 99 | 1020.6 |
| 20260831050627 | 71 | 189 | 0.0 | 0.0 | 0.00 | 0.00 | 0.00 | 99 | 1020.7 |
| 20260831050126 | 71 | 189 | 0.0 | 0.0 | 0.00 | 0.00 | 0.00 | 99 | 1020.7 |
| 20260831045626 | 71 | 189 | 0.0 | 0.0 | 0.00 | 0.00 | 0.00 | 99 | 1020.7 |
| 20260831045121 | 71 | 189 | 0.0 | 0.0 | 0.00 | 0.00 | 0.00 | 99 | 1020.7 |
| 20260831044616 | 71 | 189 | 0.0 | 0.0 | 0.00 | 0.00 | 0.00 | 99 | 1020.9 |
| 20260831044111 | 71 | 189 | 0.0 | 0.0 | 0.00 | 0.00 | 0.00 | 99 | 1020.9 |
| 20260831043607 | 72 | 189 | 0.0 | 0.0 | 0.00 | 0.00 | 0.00 | 99 | 1020.8 |
| 20260831043102 | 72 | 189 | 0.0 | 0.0 | 0.00 | 0.00 | 0.00 | 99 | 1020.6 |
| 20260831042601 | 72 | 189 | 0.0 | 0.0 | 0.00 | 0.00 | 0.00 | 99 | 1020.7 |
| 20260831042056 | 72 | 189 | 0.0 | 0.0 | 0.00 | 0.00 | 0.00 | 99 | 1020.5 |
| 20260831041551 | 72 | 189 | 0.0 | 0.0 | 0.00 | 0.00 | 0.00 | 99 | 1020.7 |
| 20260831041051 | 73 | 189 | 0.0 | 0.0 | 0.00 | 0.00 | 0.00 | 99 | 1020.8 |
| 20260831040545 | 73 | 189 | 0.0 | 0.0 | 0.00 | 0.00 | 0.00 | 99 | 1020.8 |
| 20260831040039 | 73 | 189 | 0.0 | 0.0 | 0.00 | 0.01 | 0.01 | 99 | 1020.8 |
| 20260831035537 | 73 | 189 | 0.0 | 0.0 | 0.00 | 0.01 | 0.01 | 99 | 1020.8 |
| 20260831035032 | 73 | 189 | 0.0 | 0.0 | 0.00 | 0.01 | 0.01 | 99 | 1020.9 |
| 20260831034532 | 73 | 189 | 0.0 | 0.0 | 0.00 | 0.01 | 0.01 | 99 | 1020.8 |
| 20260831034027 | 73 | 189 | 0.0 | 0.0 | 0.00 | 0.01 | 0.01 | 99 | 1020.8 |
| 20260831033523 | 73 | 189 | 0.0 | 0.0 | 0.00 | 0.01 | 0.01 | 99 | 1020.9 |
| 20260831033018 | 73 | 190 | 0.0 | 0.0 | 0.00 | 0.01 | 0.01 | 99 | 1020.8 |
| 20260831032517 | 73 | 190 | 0.0 | 0.0 | 0.00 | 0.01 | 0.01 | 99 | 1021.3 |
| 20260831032013 | 73 | 190 | 0.0 | 0.0 | 0.00 | 0.01 | 0.01 | 99 | 1021.0 |
| 20260831031513 | 73 | 190 | 0.0 | 0.0 | 0.00 | 0.01 | 0.01 | 99 | 1021.1 |
| 20260831031012 | 73 | 190 | 0.0 | 0.0 | 0.00 | 0.01 | 0.01 | 99 | 1021.1 |
| 20260831030512 | 73 | 190 | 0.0 | 0.0 | 0.00 | 0.01 | 0.01 | 99 | 1021.4 |
| 20260831030011 | 73 | 190 | 0.0 | 0.0 | 0.00 | 0.01 | 0.01 | 99 | 1021.3 |
| 20260831025509 | 73 | 190 | 0.0 | 0.0 | 0.00 | 0.01 | 0.01 | 99 | 1021.1 |
| 20260831025005 | 73 | 190 | 0.0 | 0.0 | 0.00 | 0.01 | 0.01 | 99 | 1021.1 |
| 20260831024500 | 73 | 190 | 0.0 | 0.0 | 0.00 | 0.01 | 0.01 | 99 | 1021.1 |
| 20260831024000 | 73 | 190 | 0.0 | 0.0 | 0.00 | 0.01 | 0.01 | 99 | 1021.3 |
| 20260831023458 | 73 | 190 | 0.0 | 0.0 | 0.00 | 0.01 | 0.01 | 99 | 1021.0 |
| 20260831022953 | 73 | 190 | 0.0 | 0.0 | 0.00 | 0.01 | 0.01 | 99 | 1021.0 |
| 20260831022452 | 73 | 190 | 0.0 | 0.0 | 0.00 | 0.01 | 0.01 | 99 | 1021.0 |
| 20260831021947 | 73 | 190 | 0.0 | 0.0 | 0.00 | 0.01 | 0.01 | 99 | 1021.2 |
| 20260831021446 | 73 | 190 | 0.0 | 0.0 | 0.00 | 0.01 | 0.01 | 99 | 1021.2 |
| 20260831020942 | 73 | 190 | 0.0 | 0.0 | 0.00 | 0.01 | 0.01 | 99 | 1021.1 |
| 20260831020442 | 73 | 190 | 0.0 | 0.0 | 0.00 | 0.01 | 0.01 | 98 | 1021.2 |
| 20260831015937 | 73 | 190 | 0.0 | 0.0 | 0.00 | 0.01 | 0.01 | 98 | 1021.1 |
| 20260831015434 | 73 | 190 | 0.0 | 0.0 | 0.00 | 0.01 | 0.01 | 98 | 1020.9 |
| 20260831014933 | 73 | 190 | 0.0 | 0.0 | 0.00 | 0.01 | 0.01 | 99 | 1021.0 |
| 20260831014428 | 73 | 190 | 0.0 | 0.0 | 0.00 | 0.01 | 0.01 | 99 | 1020.9 |
| 20260831013924 | 73 | 190 | 0.0 | 0.0 | 0.00 | 0.01 | 0.01 | 98 | 1020.9 |
| 20260831013419 | 73 | 190 | 0.0 | 0.0 | 0.00 | 0.01 | 0.01 | 99 | 1021.0 |
| 20260831012914 | 73 | 190 | 0.0 | 0.0 | 0.00 | 0.01 | 0.01 | 98 | 1020.9 |
| 20260831012409 | 73 | 190 | 0.0 | 0.0 | 0.00 | 0.01 | 0.01 | 98 | 1020.8 |
| 20260831011909 | 74 | 190 | 0.0 | 0.0 | 0.00 | 0.01 | 0.01 | 98 | 1020.8 |
| 20260831011404 | 74 | 190 | 0.0 | 0.0 | 0.00 | 0.01 | 0.01 | 98 | 1020.7 |
| 20260831010900 | 73 | 190 | 0.0 | 0.0 | 0.00 | 0.01 | 0.01 | 98 | 1020.7 |
| 20260831010359 | 74 | 190 | 0.0 | 0.0 | 0.00 | 0.01 | 0.01 | 98 | 1020.5 |
| 20260831005855 | 74 | 190 | 0.0 | 0.0 | 0.00 | 0.01 | 0.01 | 98 | 1020.7 |
| 20260831005350 | 74 | 190 | 0.0 | 0.0 | 0.00 | 0.01 | 0.01 | 98 | 1020.4 |
| 20260831004845 | 74 | 190 | 0.0 | 0.0 | 0.00 | 0.01 | 0.01 | 98 | 1020.3 |
| 20260831004341 | 74 | 190 | 0.0 | 0.0 | 0.00 | 0.01 | 0.01 | 98 | 1020.3 |
| 20260831003837 | 74 | 190 | 0.0 | 0.0 | 0.00 | 0.01 | 0.01 | 98 | 1020.4 |
| 20260831003333 | 74 | 190 | 0.0 | 0.0 | 0.00 | 0.01 | 0.01 | 97 | 1020.2 |
| 20260831002832 | 74 | 190 | 0.0 | 0.0 | 0.00 | 0.01 | 0.01 | 97 | 1020.2 |
| 20260831002331 | 74 | 190 | 0.0 | 0.0 | 0.00 | 0.01 | 0.01 | 97 | 1020.2 |
| 20260831001827 | 74 | 190 | 0.0 | 0.0 | 0.00 | 0.01 | 0.01 | 97 | 1020.1 |
| 20260831001322 | 75 | 190 | 0.0 | 0.0 | 0.00 | 0.01 | 0.01 | 97 | 1020.0 |
| 20260831000820 | 75 | 190 | 0.0 | 0.0 | 0.00 | 0.01 | 0.01 | 96 | 1020.1 |
| 20260831000320 | 75 | 190 | 0.0 | 0.0 | 0.00 | 0.01 | 0.01 | 97 | 1019.8 |
| 20260830235818 | 75 | 190 | 0.0 | 0.0 | 0.00 | 0.01 | 0.01 | 96 | 1019.8 |
| 20260830235313 | 76 | 190 | 0.0 | 0.0 | 0.00 | 0.01 | 0.01 | 95 | 1019.9 |
| 20260830234808 | 76 | 190 | 0.0 | 0.0 | 0.00 | 0.01 | 0.01 | 95 | 1019.8 |
| 20260830234304 | 77 | 190 | 0.0 | 0.0 | 0.00 | 0.01 | 0.01 | 94 | 1019.9 |
| 20260830233759 | 77 | 190 | 0.0 | 0.0 | 0.00 | 0.01 | 0.01 | 93 | 1019.8 |
| 20260830233255 | 78 | 190 | 0.0 | 0.0 | 0.00 | 0.01 | 0.01 | 92 | 1019.7 |
| 20260830232750 | 78 | 190 | 0.0 | 0.0 | 0.00 | 0.01 | 0.01 | 92 | 1019.8 |
| 20260830232246 | 78 | 190 | 0.0 | 0.0 | 0.00 | 0.01 | 0.01 | 92 | 1019.6 |
| 20260830231742 | 79 | 190 | 0.0 | 0.0 | 0.00 | 0.01 | 0.01 | 90 | 1019.6 |
| 20260830231242 | 79 | 191 | 0.0 | 0.0 | 0.00 | 0.01 | 0.01 | 88 | 1019.5 |
| 20260830230737 | 79 | 190 | 0.0 | 0.0 | 0.00 | 0.01 | 0.01 | 87 | 1019.6 |
| 20260830230232 | 78 | 166 | 0.0 | 0.0 | 0.00 | 0.01 | 0.01 | 87 | 1019.4 |
| 20260830225732 | 78 | 221 | 0.0 | 0.0 | 0.00 | 0.01 | 0.01 | 89 | 1019.4 |
| 20260830225227 | 79 | 221 | 0.0 | 0.0 | 0.00 | 0.01 | 0.01 | 91 | 1019.4 |
| 20260830224726 | 79 | 226 | 0.0 | 0.0 | 0.00 | 0.01 | 0.01 | 91 | 1019.5 |
| 20260830224221 | 79 | 256 | 0.0 | 0.0 | 0.00 | 0.01 | 0.01 | 90 | 1019.4 |
| 20260830223718 | 79 | 256 | 0.0 | 0.0 | 0.00 | 0.01 | 0.01 | 87 | 1019.5 |
| 20260830223214 | 79 | 244 | 0.0 | 0.0 | 0.00 | 0.01 | 0.01 | 87 | 1019.6 |
| 20260830222708 | 80 | 110 | 0.0 | 0.0 | 0.00 | 0.01 | 0.01 | 90 | 1019.5 |
| 20260830222203 | 80 | 109 | 0.0 | 0.0 | 0.00 | 0.01 | 0.01 | 86 | 1019.6 |
| 20260830221659 | 81 | 109 | 0.0 | 0.0 | 0.00 | 0.01 | 0.01 | 84 | 1019.4 |
| 20260830221155 | 81 | 181 | 0.0 | 0.0 | 0.00 | 0.01 | 0.01 | 84 | 1019.7 |
| 20260830220650 | 82 | 189 | 0.0 | 0.0 | 0.00 | 0.01 | 0.01 | 87 | 1019.5 |
| 20260830220149 | 82 | 212 | 0.0 | 0.0 | 0.00 | 0.01 | 0.01 | 82 | 1019.6 |
| 20260830215648 | 82 | 179 | 0.0 | 0.0 | 0.00 | 0.01 | 0.01 | 81 | 1019.6 |
| 20260830215143 | 83 | 178 | 0.0 | 0.0 | 0.00 | 0.01 | 0.01 | 79 | 1019.5 |
| 20260830214638 | 83 | 158 | 0.0 | 0.0 | 0.00 | 0.01 | 0.01 | 77 | 1019.8 |
| 20260830214133 | 83 | 277 | 0.0 | 0.0 | 0.00 | 0.01 | 0.01 | 78 | 1019.7 |
| 20260830213632 | 83 | 40 | 0.0 | 0.0 | 0.00 | 0.01 | 0.01 | 78 | 1019.7 |
| 20260830213128 | 83 | 159 | 0.0 | 0.0 | 0.00 | 0.01 | 0.01 | 77 | 1019.6 |
| 20260830212623 | 83 | 172 | 0.0 | 0.0 | 0.00 | 0.01 | 0.01 | 75 | 1019.8 |
| 20260830212118 | 83 | 190 | 0.0 | 0.0 | 0.00 | 0.01 | 0.01 | 76 | 1019.7 |
| 20260830211613 | 83 | 193 | 0.0 | 0.0 | 0.00 | 0.01 | 0.01 | 76 | 1019.8 |
| 20260830211108 | 83 | 190 | 0.0 | 0.0 | 0.00 | 0.01 | 0.01 | 76 | 1019.8 |
| 20260830210603 | 83 | 174 | 0.0 | 0.0 | 0.00 | 0.01 | 0.01 | 79 | 1019.8 |
| 20260830205559 | 82 | 170 | 0.0 | 0.0 | 0.00 | 0.01 | 0.01 | 76 | 1019.8 |
| 20260830205055 | 83 | 262 | 0.0 | 0.0 | 0.00 | 0.01 | 0.01 | 75 | 1019.9 |
| 20260830204554 | 83 | 130 | 0.0 | 0.0 | 0.00 | 0.01 | 0.01 | 78 | 1019.7 |
| 20260830204053 | 82 | 147 | 0.0 | 0.0 | 0.00 | 0.01 | 0.01 | 79 | 1019.9 |
| 20260830203550 | 82 | 198 | 0.0 | 0.0 | 0.00 | 0.01 | 0.01 | 77 | 1019.7 |
| 20260830203050 | 82 | 207 | 0.0 | 0.0 | 0.00 | 0.01 | 0.01 | 78 | 1019.9 |
| 20260830202550 | 82 | 237 | 0.0 | 0.0 | 0.00 | 0.01 | 0.01 | 77 | 1019.9 |
| 20260830202046 | 82 | 244 | 0.0 | 0.0 | 0.00 | 0.01 | 0.01 | 77 | 1020.1 |
| 20260830201545 | 82 | 167 | 0.0 | 0.0 | 0.00 | 0.01 | 0.01 | 78 | 1020.1 |
| 20260830201040 | 81 | 160 | 0.0 | 0.0 | 0.00 | 0.01 | 0.01 | 76 | 1020.1 |
| 20260830200536 | 81 | 115 | 0.0 | 0.0 | 0.00 | 0.01 | 0.01 | 77 | 1020.4 |
| 20260830200034 | 81 | 227 | 0.0 | 0.0 | 0.00 | 0.01 | 0.01 | 76 | 1020.4 |
| 20260830195530 | 81 | 148 | 0.0 | 0.0 | 0.00 | 0.01 | 0.01 | 75 | 1020.6 |
| 20260830195028 | 81 | 240 | 0.0 | 0.0 | 0.00 | 0.01 | 0.01 | 76 | 1020.7 |
| 20260830194528 | 80 | 155 | 0.0 | 0.0 | 0.00 | 0.01 | 0.01 | 79 | 1020.8 |
| 20260830194027 | 80 | 162 | 0.0 | 0.0 | 0.00 | 0.01 | 0.01 | 75 | 1021.0 |
| 20260830193527 | 79 | 337 | 0.0 | 0.0 | 0.00 | 0.01 | 0.01 | 79 | 1021.2 |
| 20260830193028 | 78 | 139 | 0.0 | 0.0 | 0.00 | 0.01 | 0.01 | 78 | 1020.9 |
| 20260830192523 | 78 | 176 | 0.0 | 0.0 | 0.00 | 0.01 | 0.01 | 81 | 1020.9 |
| 20260830192018 | 77 | 208 | 0.0 | 0.0 | 0.00 | 0.01 | 0.01 | 86 | 1020.7 |